Other Public Products
Issued by NWS Grand Forks, ND

Home | Current Version | Previous Version | Text Only | Print | Product List | Glossary Off
Versions: 1 2 3 4 5 6 7 8 9 10 11 12 13 14 15 16 17 18 19 20 21 22 23 24 25 26 27 28 29 30 31 32 33 34 35 36 37 38 39 40 41 42 43 44 45 46 47 48 49 50

000
FPUS83 KFGF 292210
OPUFGF
PRAIRIE TO PINES WEATHER ROUNDUP
NATIONAL WEATHER SERVICE EASTERN NORTH DAKOTA/GRAND FORKS ND
500 PM CDT WED JUL 29 2015

 **SATELLITE DATA USED TO AUGMENT SKY COVER AT AUTOMATED STATIONS**
 *****  WEATHER ACROSS EASTERN NORTH DAKOTA  *****

CITY           SKY/WX    TMP DP  RH WIND       PRES   REMARKS
GRAND FORKS    MOSUNNY   80  53  39 NW23G32   29.83R
GRAND FORKS AF SUNNY     80  55  42 NW23G29   29.85R
GRAND CITY NWS   N/A     81 N/A N/A NW15        N/A
BUXTON         NOT AVBL
DEVILS LAKE    MOSUNNY   79  55  44 W29G35    29.90S
FARGO          MOSUNNY   81  54  39 W26G35    29.91R
WAHPETON ARPT  PTCLDY    81  46  30 NW26G37   29.94S
$$

 *****  WEATHER ACROSS CENTRAL AND WESTERN NORTH DAKOTA  *****

CITY           SKY/WX    TMP DP  RH WIND       PRES   REMARKS
JAMESTOWN      MOSUNNY   79  50  36 NW26G39   29.97R
BISMARCK       MOSUNNY   83  48  29 W17G28    30.04F
MINOT          SUNNY     82  49  31 W17G30    29.97S
MINOT AFB      SUNNY     82  52  34 W24       29.96R
GARRISON         N/A     79  51  37 W16G28    30.02S
WILLISTON      SUNNY     83  45  26 W25G32    30.05R
DICKINSON      MOSUNNY   78  44  29 W17       30.09S
HETTINGER      SUNNY     82  38  20 W18G29    30.14S
$$

 *****  OTHER OBSERVATIONS NORTHEAST NORTH DAKOTA  *****

CITY           SKY/WX    TMP DP  RH WIND       PRES   REMARKS
WALHALLA       FAIR      79  54  41 MISG      29.81R
LANGDON        FAIR      79  55  44 W25G41    29.87R
CAVALIER       FAIR      79  54  41 W18G35    29.80R
GRAFTON        FAIR      79  55  44 W31G45    29.82R
CANDO          NOT AVBL
FORT TOTTEN    NOT AVBL
ROLLA          FAIR      73  57  56 NW21G33   29.92R
RUGBY          NOT AVBL
 ***** THE ABOVE OBSERVATIONS ARE NON NWS ARE NOT QUALITY
        CONTROLLED AND MAY MIS-REPORT RAIN FOR SNOW...
$$

 *****  OTHER OBSERVATIONS SOUTHEAST NORTH DAKOTA *****

CITY           SKY/WX    TMP DP  RH WIND       PRES   REMARKS
COOPERSTOWN    NOT AVBL
VALLEY CITY    FAIR      79  54  41 W25G33    29.95S
OAKES            N/A     81  52  36 W23G33    29.99S
GWINNER        FAIR      81  54  39 W22G32    29.98S
BUFFALO        NOT AVBL
WYNDMERE       NOT AVBL
 ***** THE ABOVE OBSERVATIONS ARE NON NWS ARE NOT QUALITY
       CONTROLLED AND MAY MIS-REPORT RAIN FOR SNOW...
$$

  *****  WEATHER ACROSS NORTHERN MINNESOTA  *****

CITY           SKY/WX    TMP DP  RH WIND       PRES   REMARKS
FLAG ISLAND    CLOUDY    72  55  56 W22G28    29.67R
WARROAD        MOSUNNY   75  57  53 W22G37    29.73R
ROSEAU         SUNNY     75  57  53 W22G32    29.75R
HALLOCK        MOSUNNY   81  46  30 W25G32    29.78R
THF RVR FALLS  MOSUNNY  N/A N/A N/A W20G36    29.81S
HALSTAD        NOT AVBL
FOSSTON        MOSUNNY   75  54  46 W28G39    29.86R
BAUDETTE       PTSUNNY   75  55  49 W20G35    29.72R
WASKISH        MOSUNNY   75  55  50 W23G30    29.77R
CROOKSTON      MOSUNNY   81  54  39 NW26G33   29.84S
$$
  *****  WEATHER ACROSS CENTRAL AND WEST MINNESOTA  *****

CITY           SKY/WX    TMP DP  RH WIND       PRES   REMARKS
BEMIDJI        MOSUNNY   76  53  44 W17G40    29.83R
PARK RAPIDS    MOSUNNY   77  50  38 W29G36    29.88R
WADENA         MOSUNNY   79  54  41 W21G28    29.91R
DETROIT LAKES  SUNNY     77  52  41 W28G37    29.93R
MOORHEAD       MOSUNNY   79  55  44 W25G31    29.92R
FERGUS FALLS   NOT AVBL
ELBOW LAKE     FAIR      77  54  43 NW18G24   29.96R
MORRIS MN      SUNNY     81  54  39 NW21G30   29.96S
STAPLES        MOSUNNY   77  50  38 W22G32    29.90S
WHEATON        SUNNY     79  54  41 W24G31    29.98S
$$
  *****  WEATHER ELSEWHERE ACROSS MINNESOTA  *****

CITY           SKY/WX    TMP DP  RH WIND       PRES   REMARKS
DULUTH         PTSUNNY   73  54  51 W14       29.80S
INTRNTL FALLS  CLOUDY    68  58  70 W9        29.71R
ELY            CLOUDY    66  55  68 W13G23    29.75S
CLOQUET        MOSUNNY   79  48  34 W21G28    29.81F
BRAINERD       MOSUNNY   79  52  38 W15G30    29.88R
HIBBING        LGT RAIN  75  53  46 W15G26    29.79R
ALEXANDRIA     MOSUNNY   80  54  40 W26G39    29.96S
SAINT CLOUD    MOSUNNY   80  52  37 W21G32    29.92S
MINNEAPOLIS    MOSUNNY   82  52  35 W23G37    29.93S
$$

  *****  WEATHER ACROSS SOUTH DAKOTA  *****

CITY           SKY/WX    TMP DP  RH WIND       PRES   REMARKS
SIOUX FALLS    MOSUNNY   83  51  33 W13G24    30.08F
BROOKINGS      SUNNY     81  52  36 W18G24    30.08S
WATERTOWN      MOSUNNY   81  51  35 W20G35    30.04F
HURON          SUNNY     85  48  27 NW18      30.05F
SISSETON         N/A     81  53  37 NW21G26   29.97R
ABERDEEN       MOSUNNY   85  49  28 NW21G29   30.02S
MITCHELL       SUNNY     86  49  27 NW21      30.08F
PIERRE         SUNNY     87  38  17 NW20G28   30.08F
MOBRIDGE       MOSUNNY   84  50  30 NW17      30.05S
RAPID CITY     SUNNY     82  43  25 CALM      30.19F
$$

  *****  SOME WEATHER IN NEARBY STATES *****

CITY           SKY/WX    TMP DP  RH WIND       PRES   REMARKS
GLASGOW MT     SUNNY     82  43  25 W9G20     30.09
GREAT FALLS MT SUNNY     81  34  18 W13       30.17F
CHEYENNE WY    MOSUNNY   81  46  29 E9G21     30.31F
SCOTTSBLUFF NE SUNNY     86  50  28 S9        30.20F
OMAHA NE       PTSUNNY   82  56  40 NW7       30.14F
DES MOINES IA  MOSUNNY   85  54  34 W8        30.10F
DAVENPORT IA   SUNNY     82  59  45 W10       30.05F
CHICAGO IL     MOSUNNY   85  52  32 W15       29.96S
EAU CLAIRE WI  SUNNY     81  54  39 W21G33    29.90F
LA CROSSE WI   SUNNY     84  54  35 W17G25    29.95R
$$

  *****  SOME NATIONAL WEATHER *****

CITY           SKY/WX    TMP DP  RH WIND       PRES   REMARKS
LA GUARDIA NY  PTSUNNY   92  65  40 S12G21    29.90F HX  94
RALEIGH NC     MOSUNNY   90  69  50 SE8       29.95F HX  94
ATLANTA GA     PTSUNNY   88  72  58 CALM      29.95F HX  94
NEW ORLEANS LA MOSUNNY   94  74  52 NW16G22   29.95S HX 104
OKLAHOMA CITY  MOSUNNY   95  69  42 S10G17    30.03F HX 100
ALBUQUERQUE NM LGT RAIN  71  63  75 E10       30.28F
SALT LAKE CITY SUNNY     83  22  10 VRB3      30.24F
LOS ANGELES CA MOSUNNY   73  64  73 SW15      29.95S
BOISE ID       SUNNY     88  32  13 N8        30.18F
SEATTLE WA     SUNNY     87  51  28 VRB5      30.15F
$$

*** WEATHER ACROSS MANITOBA...SASKATCHEWAN AND ONTARIO ***
                ***ONTARIO***

CITY           SKY/WX    TMP DP  RH WIND       PRES   REMARKS
GERALDTON      PTSUNNY   70  57  64 SW18G29   29.53F
THUNDER BAY    PTSUNNY   73  59  60 W20G33    29.62R
SIOUX LOOKOUT  LGT RAIN  64  61  88 W17G28    29.53R
TORONTO        PTSUNNY   84  64  51 S10       29.85F
BIG TROUT LK   SUNNY     66  59  77 W7        29.26R
PICKLE LAKE    PTSUNNY   70  57  64 W16G26    29.37R
DRYDEN         PTSUNNY   63  59  88 W20G35    29.59R
KENORA         LGT RAIN  63  61  94 W12G23    29.67R FOG
$$
                *** MANITOBA***

CITY           SKY/WX    TMP DP  RH WIND       PRES   REMARKS
BRANDON        PTSUNNY   75  55  50 NW23G37   29.87R
DAUPHIN        SUNNY     77  52  41 NW22G29   29.80R
ISLAND LAKE    LGT RAIN  64  63  94 NW6       29.40R
PILOT MOUND      N/A     73  54  49 NW18G28     N/A
THE PAS        PTSUNNY   70  59  68 N7        29.75R
THOMPSON       PTSUNNY   63  57  82 N8G17     29.67R
WINNIPEG       PTSUNNY   75  59  57 NW21G33   29.75R
LYNN LAKE        N/A    N/A N/A N/A MISG        N/A
CHURCHILL      CLOUDY    50  48  93 N16       29.60F FOG
GILLAM         LGT RAIN  55  54  94 N18G31    29.53R
$$
                ***SASKATCHEWAN***

CITY           SKY/WX    TMP DP  RH WIND       PRES   REMARKS
ESTEVAN        MOSUNNY   79  52  38 W21G29    29.99S
KINDERSLEY     PTSUNNY   75  45  33 NW12      30.02F
LLOYDMINSTER   MOSUNNY   72  45  37 W21       30.00S
PRINCE ALBERT  NOT AVBL
REGINA         MOSUNNY   77  50  38 NW25G32   29.99S
YORKTON        MOSUNNY   75  57  53 W17G30    29.88R



USA.gov is the U.S. government's official web portal to all federal, state and local government web resources and services.